This demonstration page uses our WeatherBlox Daily Observations layout. Learn more.

Left ArrowRight Arrow

Hourly Observations for July 9, 2020

Temp ( °F °C ) Dew Point ( °F °C ) Humidity (%) Winds ( mph kmh ) Pressure ( in mb ) Visibility ( mi km ) Precip ( " mm )
12:54 am 00:54 Mostly Clear 82 27.8 69 20.6 65 65 S 24 39 29.68 1005 10 16.0934 0 0
12:59 am 00:59 Partly Cloudy with Nearby Thunderstorms 79 26.1 65 18.3 62 62 W 37 59 29.74 1007 10 16.0934 0 0
1:13 am 01:13 Mostly Cloudy with Heavy Thunderstorms 66 18.9 63 17.2 90 90 WNW 39 63 29.81 1010 1.75 2.816345 0.03 0.762
1:18 am 01:18 Cloudy with Heavy Thunderstorms 66 18.9 62 16.7 87 87 WNW 39 63 29.83 1010 1.5 2.41401 0.11 2.794
1:25 am 01:25 Cloudy with Heavy Thunderstorms 66 18.9 62 16.7 87 87 WNW 36 57 29.85 1011 3 4.82802 0.2 5.08
1:34 am 01:34 Cloudy with Nearby Thunderstorms 67 19.4 62 16.7 84 84 WNW 36 57 29.83 1010 6 9.65604 0.22 5.588
1:54 am 01:54 Cloudy with Nearby Thunderstorms 66 18.9 62 16.7 87 87 NW 28 44 29.82 1010 6 9.65604 0.28 7.112
2:08 am 02:08 Cloudy with Thunderstorms 67 19.4 62 16.7 84 84 WNW 18 30 29.88 1012 7 11.26538 0.06 1.524
2:22 am 02:22 Mostly Cloudy with Thunderstorms 66 18.9 62 16.7 87 87 W 14 22 29.87 1012 8 12.87472 0.11 2.794
2:35 am 02:35 Cloudy with Nearby Thunderstorms 66 18.9 62 16.7 87 87 W 9 15 29.86 1011 6 9.65604 0.16 4.064
2:54 am 02:54 Cloudy with Nearby Thunderstorms 65 18.3 62 16.7 90 90 S 10 17 29.84 1011 6 9.65604 0.25 6.35
3:06 am 03:06 Mostly Cloudy with Light Rain 65 18.3 62 16.7 90 90 S 9 15 29.8 1009 8 12.87472 0.03 0.762
3:54 am 03:54 Mostly Cloudy with Light Rain 65 18.3 62 16.7 90 90 ESE 15 24 29.66 1004 10 16.0934 0.04 1.016
4:10 am 04:10 Mostly Cloudy 65 18.3 62 16.7 90 90 S 22 35 29.65 1004 10 16.0934 0.001 0.001
4:54 am 04:54 Clear 66 18.9 62 16.7 87 87 W 9 15 29.72 1006 10 16.0934 0.001 0.001
5:54 am 05:54 Clear 66 18.9 61 16.1 84 84 WNW 13 20 29.76 1008 10 16.0934 0 0
6:54 am 06:54 Sunny 68 20 60 15.6 76 76 WNW 13 20 29.75 1008 10 16.0934 0 0
7:54 am 07:54 Sunny 69 20.6 60 15.6 73 73 WNW 8 13 29.77 1008 10 16.0934 0 0
8:54 am 08:54 Sunny 72 22.2 62 16.7 71 71 NW 13 20 29.83 1010 10 16.0934 0 0
9:54 am 09:54 Sunny 75 23.9 64 17.8 69 69 NNW 15 24 29.82 1010 10 16.0934 0 0
10:54 am 10:54 Sunny 78 25.6 65 18.3 64 64 N 13 20 29.85 1011 10 16.0934 0 0
11:54 am 11:54 Sunny 80 26.7 65 18.3 60 60 NNE 14 22 29.86 1011 10 16.0934 0 0
12:54 pm 12:54 Sunny 82 27.8 64 17.8 55 55 NE 13 20 29.88 1012 10 16.0934 0 0
1:54 pm 13:54 Sunny 84 28.9 63 17.2 49 49 NNE 12 19 29.88 1012 10 16.0934 0 0
2:54 pm 14:54 Sunny 84 28.9 63 17.2 49 49 NE 10 17 29.89 1012 10 16.0934 0 0
3:54 pm 15:54 Sunny 85 29.4 63 17.2 48 48 N 6 9 29.88 1012 10 16.0934 0 0
4:54 pm 16:54 Sunny 86 30 61 16.1 43 43 N 8 13 29.88 1012 10 16.0934 0 0
5:54 pm 17:54 Sunny 86 30 62 16.7 45 45 VRB 3 6 29.89 1012 10 16.0934 0 0
6:54 pm 18:54 Sunny 85 29.4 63 17.2 48 48 N 9 15 29.9 1013 10 16.0934 0 0
7:54 pm 19:54 Sunny 84 28.9 65 18.3 53 53 WNW 6 9 29.92 1013 10 16.0934 0 0
8:54 pm 20:54 Sunny 82 27.8 66 18.9 58 58 W 3 6 29.93 1014 10 16.0934 0 0
9:54 pm 21:54 Clear 79 26.1 67 19.4 67 67 Calm 29.94 1014 10 16.0934 0 0
10:54 pm 22:54 Clear 74 23.3 68 20 82 82 Calm 29.95 1014 10 16.0934 0 0
11:54 pm 23:54 Clear 76 24.4 68 20 77 77 Calm 29.97 1015 10 16.0934 0 0

Powered by AerisWeather